Location: Newark
(51.8900°N, 2.0780°W)
Time: 21:11:08
(UTC+00:00)

Envisat - Pass Details

Date: 22 November 2019
Orbit: 764 x 766 km, 98.1° (Epoch: 11 December)

Event Time Altitude Azimuth Distance (km) Brightness Sun altitude
Rises 05:46:21 0° 26° (NNE) 3,245 6.4 -16.9°
Reaches altitude 10° 05:49:25 10° 45° (NE) 2,312 5.9 -16.4°
Maximum altitude 05:52:53 18° 88° (E) 1,806 5.9 -15.9°
Drops below altitude 10° 05:56:19 10° 131° (SE) 2,300 6.5 -15.4°
Sets 05:59:20 0° 150° (SSE) 3,220 6.9 -14.9°
